SR6WXP Weather Reports


Display with metric or nautical units.
time (UTC)temp
F
wind
direction
speed
MPH
gust
MPH
rain 1hr
in
rain 24hr
in
rain mn
in
humidity
%
barometer
mb
20260506214939 59 5 1.0 4.0 0.00 0.00 0.00 95 983.8
20260506214539 59 333 2.0 5.0 0.00 0.00 0.00 96 983.9
20260506214137 59 344 3.0 6.0 0.00 0.00 0.00 96 983.9
20260506213737 59 3 6.0 8.0 0.00 0.00 0.00 96 983.9
20260506213337 59 328 6.0 8.0 0.00 0.00 0.00 96 984.0
20260506212937 59 302 6.0 8.0 0.00 0.00 0.00 96 984.1
20260506212537 59 295 7.0 9.0 0.00 0.00 0.00 96 984.2
20260506212135 60 297 7.0 9.0 0.00 0.00 0.00 95 984.1
20260506211735 59 294 7.0 9.0 0.00 0.00 0.00 95 984.0
20260506211335 59 293 7.0 10.0 0.00 0.00 0.00 94 983.9
20260506210928 59 276 5.0 7.0 0.00 0.00 0.00 95 983.9
20260506210527 60 284 10.0 12.0 0.00 0.00 0.00 94 983.9
20260506210124 60 287 8.0 10.0 0.00 0.00 0.00 94 983.9
20260506205721 60 277 10.0 14.0 0.00 0.00 0.00 93 984.0
20260506204920 61 272 8.0 11.0 0.00 0.00 0.00 91 983.9
20260506204520 61 271 9.0 12.0 0.00 0.00 0.00 90 983.8
20260506204118 61 265 7.0 10.0 0.00 0.00 0.00 90 983.8
20260506203718 61 273 8.0 10.0 0.00 0.00 0.00 89 983.7
20260506203319 60 253 8.0 12.0 0.00 0.00 0.00 89 983.8
20260506202919 60 271 8.0 11.0 0.00 0.00 0.00 88 983.5
20260506202519 60 286 5.0 7.0 0.00 0.00 0.00 87 983.2
20260506202117 60 316 5.0 8.0 0.00 0.00 0.00 87 983.1
20260506201717 60 332 5.0 7.0 0.00 0.00 0.00 87 983.2
20260506201317 60 319 3.0 4.0 0.00 0.00 0.00 87 983.2
20260506200917 60 314 7.0 9.0 0.00 0.00 0.00 88 983.2
20260506200517 60 319 9.0 11.0 0.00 0.00 0.00 88 983.2
20260506200115 61 9 11.0 14.0 0.00 0.00 0.00 88 983.1
20260506195715 61 335 10.0 13.0 0.00 0.00 0.00 86 983.3
20260506195315 61 291 4.0 7.0 0.00 0.00 0.00 86 983.5
20260506194913 61 242 5.0 7.0 0.00 0.00 0.00 86 983.4
20260506194513 61 290 7.0 9.0 0.00 0.00 0.00 86 983.2
20260506194111 62 312 11.0 15.0 0.00 0.00 0.00 86 983.1
20260506193711 62 308 13.0 16.0 0.00 0.00 0.00 84 983.1
20260506193311 63 303 12.0 15.0 0.00 0.00 0.00 82 983.2
20260506192911 63 298 12.0 14.0 0.00 0.00 0.00 80 983.3
20260506192511 63 286 10.0 15.0 0.00 0.00 0.00 77 983.3
20260506192109 64 296 9.0 13.0 0.00 0.00 0.00 76 983.3
20260506191709 64 301 9.0 12.0 0.00 0.00 0.00 76 983.2
20260506191307 64 284 12.0 17.0 0.00 0.00 0.00 74 983.2
20260506190907 65 273 11.0 14.0 0.00 0.00 0.00 73 983.2
20260506190507 65 292 9.0 11.0 0.00 0.00 0.00 71 982.9
20260506190105 66 309 7.0 8.0 0.00 0.00 0.00 70 982.7
20260506185705 66 279 5.0 7.0 0.00 0.00 0.00 69 982.6
20260506185307 66 250 3.0 4.0 0.00 0.00 0.00 68 982.6
20260506184906 66 294 4.0 5.0 0.00 0.00 0.00 67 982.6
20260506184505 66 264 6.0 8.0 0.00 0.00 0.00 68 982.5
20260506184056 66 275 9.0 14.0 0.00 0.00 0.00 67 982.5
20260506183652 67 285 10.0 12.0 0.00 0.00 0.00 65 982.4
20260506183251 67 302 8.0 9.0 0.00 0.00 0.00 64 982.3
20260506182851 68 288 5.0 7.0 0.00 0.00 0.00 63 982.2
20260506182450 69 288 10.0 12.0 0.00 0.00 0.00 62 982.2
20260506182048 70 280 12.0 14.0 0.00 0.00 0.00 60 982.2
20260506181648 70 244 7.0 12.0 0.00 0.00 0.00 57 982.0
20260506181248 70 210 2.0 2.0 0.00 0.00 0.00 56 981.9
20260506180848 70 164 1.0 2.0 0.00 0.00 0.00 56 981.8
20260506180448 70 156 1.0 2.0 0.00 0.00 0.00 55 981.7
20260506180045 70 154 1.0 2.0 0.00 0.00 0.00 55 981.7
20260506175645 70 146 1.0 1.0 0.00 0.00 0.00 55 981.6
20260506175246 71 148 1.0 2.0 0.00 0.00 0.00 55 981.6
20260506174845 71 131 0.0 0.0 0.00 0.00 0.00 54 981.6
20260506174446 71 116 0.0 1.0 0.00 0.00 0.00 54 981.5
20260506174043 71 122 1.0 4.0 0.00 0.00 0.00 54 981.5
20260506173643 71 131 2.0 6.0 0.00 0.00 0.00 54 981.5
20260506173243 71 115 1.0 3.0 0.00 0.00 0.00 53 981.6
20260506172841 71 129 1.0 2.0 0.00 0.00 0.00 53 981.7
20260506172441 72 124 1.0 2.0 0.00 0.00 0.00 53 981.6
20260506172039 72 112 2.0 4.0 0.00 0.00 0.00 52 981.6
20260506171639 72 112 2.0 4.0 0.00 0.00 0.00 52 981.6
20260506171239 72 111 2.0 4.0 0.00 0.00 0.00 52 981.6
20260506170838 72 122 2.0 4.0 0.00 0.00 0.00 51 981.6
20260506170438 72 110 3.0 6.0 0.00 0.00 0.00 51 981.6
20260506170036 72 121 4.0 6.0 0.00 0.00 0.00 51 981.7
20260506165636 72 125 3.0 6.0 0.00 0.00 0.00 51 981.7
20260506165234 73 109 3.0 4.0 0.00 0.00 0.00 51 981.7
20260506164834 73 117 3.0 5.0 0.00 0.00 0.00 50 981.7
20260506164434 73 106 3.0 5.0 0.00 0.00 0.00 50 981.8
20260506164032 73 123 2.0 3.0 0.00 0.00 0.00 50 981.9
20260506163632 73 111 3.0 6.0 0.00 0.00 0.00 50 981.9
20260506163232 73 121 2.0 4.0 0.00 0.00 0.00 50 981.9
20260506162832 73 128 2.0 4.0 0.00 0.00 0.00 50 982.0
20260506162432 73 172 2.0 6.0 0.00 0.00 0.00 50 982.0
20260506162030 73 100 1.0 2.0 0.00 0.00 0.00 50 982.1
20260506161628 73 97 0.0 1.0 0.00 0.00 0.00 50 982.1
20260506161228 73 98 1.0 2.0 0.00 0.00 0.00 50 982.1
20260506160820 73 177 0.0 2.0 0.00 0.00 0.00 50 982.2
20260506160419 73 190 1.0 2.0 0.00 0.00 0.00 50 982.1
20260506160017 73 165 1.0 2.0 0.00 0.00 0.00 51 982.2
20260506155616 73 190 1.0 2.0 0.00 0.00 0.00 51 982.3
20260506155216 73 202 2.0 4.0 0.00 0.00 0.00 51 982.3
20260506154816 73 199 2.0 3.0 0.00 0.00 0.00 51 982.4
20260506154415 73 217 3.0 5.0 0.00 0.00 0.00 51 982.4
20260506154013 73 224 4.0 6.0 0.00 0.00 0.00 50 982.4
20260506153613 73 214 3.0 4.0 0.00 0.00 0.00 50 982.5
20260506153213 73 175 1.0 5.0 0.00 0.00 0.00 50 982.5
20260506152813 73 190 3.0 5.0 0.00 0.00 0.00 50 982.6
20260506152413 73 203 3.0 5.0 0.00 0.00 0.00 50 982.6
20260506152011 73 204 6.0 7.0 0.00 0.00 0.00 50 982.6
20260506151612 73 199 7.0 12.0 0.00 0.00 0.00 49 982.6
20260506151211 73 187 5.0 12.0 0.00 0.00 0.00 48 982.6
20260506150809 73 167 4.0 12.0 0.00 0.00 0.00 48 982.6
20260506150409 73 189 4.0 9.0 0.00 0.00 0.00 47 982.7
20260506150006 73 168 5.0 8.0 0.00 0.00 0.00 47 982.7
20260506145606 73 141 4.0 10.0 0.00 0.00 0.00 46 982.7
20260506145206 74 161 3.0 6.0 0.00 0.00 0.00 46 982.7
20260506144806 74 173 2.0 4.0 0.00 0.00 0.00 45 982.7
20260506144406 74 305 2.0 3.0 0.00 0.00 0.00 45 982.7
20260506144004 74 236 2.0 3.0 0.00 0.00 0.00 45 982.8
20260506143604 74 235 2.0 3.0 0.00 0.00 0.00 45 982.8
20260506143202 75 281 1.0 2.0 0.00 0.00 0.00 44 982.7
20260506142802 75 268 3.0 5.0 0.00 0.00 0.00 44 982.7
20260506142402 75 273 5.0 7.0 0.00 0.00 0.00 44 982.7
20260506142000 75 265 2.0 4.0 0.00 0.00 0.00 44 982.7
20260506141559 75 234 2.0 5.0 0.00 0.00 0.00 44 982.8
20260506141159 75 242 3.0 6.0 0.00 0.00 0.00 44 982.8
20260506140759 75 228 2.0 4.0 0.00 0.00 0.00 45 982.8
20260506140359 74 238 3.0 6.0 0.00 0.00 0.00 44 982.9
20260506135957 74 272 5.0 7.0 0.00 0.00 0.00 44 982.9
20260506135555 74 267 1.0 3.0 0.00 0.00 0.00 44 982.9
20260506135155 74 170 2.0 4.0 0.00 0.00 0.00 45 983.0
20260506134755 74 200 4.0 6.0 0.00 0.00 0.00 44 983.1
20260506134355 74 235 6.0 10.0 0.00 0.00 0.00 44 983.1
20260506133945 74 217 5.0 9.0 0.00 0.00 0.00 44 983.1
20260506133545 74 187 6.0 9.0 0.00 0.00 0.00 44 983.1
20260506133143 74 199 3.0 5.0 0.00 0.00 0.00 44 983.1
20260506132742 74 224 5.0 8.0 0.00 0.00 0.00 44 983.1
20260506132342 74 215 6.0 9.0 0.00 0.00 0.00 44 983.1
20260506131940 74 204 7.0 10.0 0.00 0.00 0.00 44 983.1
20260506131540 74 188 10.0 14.0 0.00 0.00 0.00 44 983.1
20260506131140 74 214 6.0 10.0 0.00 0.00 0.00 44 983.1
20260506130740 74 229 6.0 9.0 0.00 0.00 0.00 44 983.1
20260506130340 74 200 8.0 13.0 0.00 0.00 0.00 44 983.0
20260506125938 74 225 10.0 12.0 0.00 0.00 0.00 43 983.1
20260506125538 74 200 9.0 12.0 0.00 0.00 0.00 44 983.1
20260506125138 74 206 10.0 14.0 0.00 0.00 0.00 43 983.2
20260506124736 74 208 11.0 18.0 0.00 0.00 0.00 43 983.2
20260506124336 74 218 6.0 10.0 0.00 0.00 0.00 43 983.1
20260506123934 74 256 10.0 14.0 0.00 0.00 0.00 44 983.2
20260506123534 74 222 7.0 12.0 0.00 0.00 0.00 44 983.3
20260506123133 74 188 4.0 9.0 0.00 0.00 0.00 44 983.2
20260506122734 74 188 6.0 12.0 0.00 0.00 0.00 44 983.3
20260506122334 73 171 7.0 14.0 0.00 0.00 0.00 45 983.4
20260506121932 73 176 7.0 11.0 0.00 0.00 0.00 45 983.4
20260506121532 73 209 10.0 12.0 0.00 0.00 0.00 45 983.4
20260506121132 73 199 8.0 14.0 0.00 0.00 0.00 45 983.4
20260506120731 73 201 8.0 13.0 0.00 0.00 0.00 46 983.3
20260506120331 73 174 8.0 12.0 0.00 0.00 0.00 47 983.2
20260506115929 73 190 8.0 18.0 0.00 0.00 0.00 48 983.2
20260506115529 73 197 4.0 7.0 0.00 0.00 0.00 49 983.2
20260506115129 73 224 3.0 5.0 0.00 0.00 0.00 49 983.2
20260506114729 72 228 5.0 8.0 0.00 0.00 0.00 49 983.2
20260506114329 72 202 5.0 10.0 0.00 0.00 0.00 49 983.2
20260506113927 72 215 5.0 10.0 0.00 0.00 0.00 49 983.2
20260506113524 72 212 10.0 16.0 0.00 0.00 0.00 49 983.2
20260506113124 72 188 5.0 9.0 0.00 0.00 0.00 49 983.3
20260506112725 72 202 8.0 12.0 0.00 0.00 0.00 50 983.3
20260506112324 72 217 5.0 11.0 0.00 0.00 0.00 50 983.3
20260506111922 71 216 8.0 17.0 0.00 0.00 0.00 51 983.3
20260506111522 71 143 4.0 10.0 0.00 0.00 0.00 51 983.4
20260506111122 71 179 7.0 15.0 0.00 0.00 0.00 52 983.4
20260506110715 71 223 8.0 10.0 0.00 0.00 0.00 52 983.3
20260506110314 71 246 8.0 15.0 0.00 0.00 0.00 53 983.2
20260506105911 70 235 6.0 10.0 0.00 0.00 0.00 53 983.4
20260506105510 70 242 8.0 14.0 0.00 0.00 0.00 54 983.4
20260506105110 70 234 9.0 14.0 0.00 0.00 0.00 53 983.4
20260506104710 70 174 3.0 6.0 0.00 0.00 0.00 54 983.5
20260506104310 70 174 10.0 15.0 0.00 0.00 0.00 54 983.5
20260506103909 69 213 5.0 8.0 0.00 0.00 0.00 55 983.4
20260506103509 69 209 10.0 15.0 0.00 0.00 0.00 55 983.4
20260506103109 69 237 10.0 14.0 0.00 0.00 0.00 56 983.4
20260506102706 69 208 6.0 11.0 0.00 0.00 0.00 56 983.5
20260506102306 69 221 11.0 16.0 0.00 0.00 0.00 56 983.5
20260506101904 69 240 11.0 17.0 0.00 0.00 0.00 57 983.5
20260506101504 69 219 8.0 10.0 0.00 0.00 0.00 58 983.5
20260506101104 69 238 6.0 11.0 0.00 0.00 0.00 58 983.5
20260506100704 69 217 11.0 16.0 0.00 0.00 0.00 58 983.4
20260506100304 69 242 11.0 17.0 0.00 0.00 0.00 57 983.4
20260506095901 69 219 10.0 17.0 0.00 0.00 0.00 58 983.4
20260506095501 69 216 8.0 12.0 0.00 0.00 0.00 58 983.5
20260506095101 69 234 12.0 17.0 0.00 0.00 0.00 58 983.5
20260506094701 69 215 6.0 10.0 0.00 0.00 0.00 58 983.5
20260506094301 69 215 8.0 12.0 0.00 0.00 0.00 58 983.5
20260506093859 69 226 12.0 16.0 0.00 0.00 0.00 58 983.4
20260506093459 68 243 6.0 13.0 0.00 0.00 0.00 58 983.4
20260506093059 68 224 5.0 8.0 0.00 0.00 0.00 58 983.4
20260506092659 68 224 10.0 16.0 0.00 0.00 0.00 58 983.4
20260506092259 69 215 14.0 16.0 0.00 0.00 0.00 57 983.3
20260506091857 69 213 8.0 10.0 0.00 0.00 0.00 57 983.4
20260506091455 69 217 14.0 21.0 0.00 0.00 0.00 57 983.4
20260506091055 68 243 11.0 14.0 0.00 0.00 0.00 57 983.4
20260506090655 68 219 6.0 13.0 0.00 0.00 0.00 57 983.4
20260506090255 68 203 8.0 12.0 0.00 0.00 0.00 57 983.4
20260506085853 68 220 11.0 15.0 0.00 0.00 0.00 57 983.3
20260506085053 68 184 7.0 12.0 0.00 0.00 0.00 57 983.3
20260506084653 68 206 10.0 15.0 0.00 0.00 0.00 58 983.2
20260506084253 68 214 10.0 12.0 0.00 0.00 0.00 59 983.2
20260506083844 68 222 10.0 15.0 0.00 0.00 0.00 59 983.2
20260506083443 68 211 9.0 14.0 0.00 0.00 0.00 59 983.2
20260506083042 68 201 9.0 14.0 0.00 0.00 0.00 59 983.3
20260506082641 68 205 11.0 16.0 0.00 0.00 0.00 60 983.3
20260506082241 67 239 6.0 10.0 0.00 0.00 0.00 60 983.1
20260506081839 67 224 10.0 15.0 0.00 0.00 0.00 60 983.1
20260506081439 67 224 3.0 6.0 0.00 0.00 0.00 62 983.1
20260506081039 66 209 6.0 12.0 0.00 0.00 0.00 62 983.1
20260506080637 66 231 7.0 12.0 0.00 0.00 0.00 63 983.1
20260506080236 66 202 6.0 12.0 0.00 0.00 0.00 63 983.0
20260506073433 65 208 8.0 12.0 0.00 0.00 0.00 64 983.1
20260506073033 65 189 7.0 12.0 0.00 0.00 0.00 64 983.1
20260506072633 65 203 6.0 10.0 0.00 0.00 0.00 65 983.1
20260506072233 65 227 7.0 11.0 0.00 0.00 0.00 64 983.1
20260506071831 65 208 4.0 7.0 0.00 0.00 0.00 65 983.1
20260506071431 65 208 5.0 10.0 0.00 0.00 0.00 65 983.0
20260506071031 65 227 6.0 9.0 0.00 0.00 0.00 65 983.0
20260506070631 65 222 10.0 16.0 0.00 0.00 0.00 65 983.0
20260506070231 64 230 6.0 10.0 0.00 0.00 0.00 65 983.1
20260506062225 63 201 3.0 5.0 0.00 0.00 0.00 65 982.7
20260506061823 63 195 4.0 6.0 0.00 0.00 0.00 65 982.8
20260506061423 63 197 4.0 8.0 0.00 0.00 0.00 65 982.8
20260506061023 63 155 2.0 3.0 0.00 0.00 0.00 66 982.8
20260506060615 63 181 2.0 4.0 0.00 0.00 0.00 66 982.9
20260506060214 63 187 3.0 4.0 0.00 0.00 0.00 66 982.8
20260506051403 60 161 2.0 5.0 0.00 0.00 0.00 70 982.3
20260506051003 60 146 2.0 4.0 0.00 0.00 0.00 70 982.3
20260506050603 59 177 3.0 4.0 0.00 0.00 0.00 70 982.3
20260506050204 59 170 2.0 4.0 0.00 0.00 0.00 70 982.4
20260506045001 60 172 5.0 8.0 0.00 0.00 0.00 70 982.3
20260506044601 60 189 4.0 8.0 0.00 0.00 0.00 70 982.3
20260506044201 60 177 4.0 7.0 0.00 0.00 0.00 70 982.3
20260506043759 60 170 3.0 6.0 0.00 0.00 0.00 70 982.2
20260506043357 60 172 4.0 7.0 0.00 0.00 0.00 70 982.1
20260506042957 60 166 4.0 7.0 0.00 0.00 0.00 70 982.1
20260506042557 59 151 3.0 5.0 0.00 0.00 0.00 70 981.9
20260506042157 59 116 3.0 5.0 0.00 0.00 0.00 70 981.8
20260506041755 59 133 3.0 6.0 0.00 0.00 0.00 70 981.9
20260506041355 59 149 2.0 4.0 0.00 0.00 0.00 70 982.0
20260506040955 59 166 3.0 4.0 0.00 0.00 0.00 70 982.0
20260506040555 59 153 3.0 5.0 0.00 0.00 0.00 70 981.9
20260506040155 59 165 1.0 4.0 0.00 0.00 0.00 70 981.9
20260506035753 59 126 2.0 3.0 0.00 0.00 0.00 70 981.8
20260506035353 59 123 2.0 3.0 0.00 0.00 0.00 70 981.7
20260506034953 59 131 2.0 3.0 0.00 0.00 0.00 70 981.7
20260506034553 59 132 2.0 4.0 0.00 0.00 0.00 70 981.7
20260506034153 59 124 3.0 5.0 0.00 0.00 0.00 70 981.7
20260506033744 59 145 3.0 4.0 0.00 0.00 0.00 70 981.7
20260506033343 59 139 3.0 5.0 0.00 0.00 0.00 69 981.8
20260506032942 59 151 3.0 4.0 0.00 0.00 0.00 69 981.8
20260506032538 59 143 2.0 4.0 0.00 0.00 0.00 69 981.8
20260506032138 59 138 3.0 4.0 0.00 0.00 0.00 69 981.8
20260506031736 60 132 2.0 4.0 0.00 0.00 0.00 68 981.9
20260506031336 60 138 2.0 5.0 0.00 0.00 0.00 68 981.9
20260506030936 60 138 2.0 4.0 0.00 0.00 0.00 68 982.0
20260506030536 60 159 3.0 6.0 0.00 0.00 0.00 68 982.0
20260506030136 60 154 4.0 6.0 0.00 0.00 0.00 67 982.0
20260506025734 60 160 4.0 6.0 0.00 0.00 0.00 67 981.9
20260506025334 60 158 4.0 6.0 0.00 0.00 0.00 67 982.0
20260506024934 60 151 3.0 6.0 0.00 0.00 0.00 66 982.1
20260506024534 60 162 2.0 5.0 0.00 0.00 0.00 66 982.1
20260506024133 61 143 2.0 4.0 0.00 0.00 0.00 66 982.1
20260506023731 61 136 2.0 3.0 0.00 0.00 0.00 65 982.1
20260506023331 61 132 2.0 3.0 0.00 0.00 0.00 65 982.1
20260506022931 61 126 2.0 3.0 0.00 0.00 0.00 65 982.1
20260506022531 61 171 1.0 2.0 0.00 0.00 0.00 65 982.1
20260506022131 61 179 1.0 2.0 0.00 0.00 0.00 64 982.1
20260506021729 61 156 2.0 4.0 0.00 0.00 0.00 64 982.1
20260506021327 61 172 2.0 3.0 0.00 0.00 0.00 64 982.1
20260506020926 61 156 2.0 2.0 0.00 0.00 0.00 64 982.1
20260506020526 61 181 2.0 3.0 0.00 0.00 0.00 64 982.1
20260506020126 61 202 0.0 0.0 0.00 0.00 0.00 64 982.0
20260506015724 61 198 1.0 2.0 0.00 0.00 0.00 63 982.1
20260506015324 62 185 1.0 2.0 0.00 0.00 0.00 63 982.0
20260506014924 62 198 2.0 2.0 0.00 0.00 0.00 63 982.1
20260506014524 62 213 1.0 2.0 0.00 0.00 0.00 63 982.0
20260506014124 62 218 2.0 4.0 0.00 0.00 0.00 63 982.1
20260506013722 62 213 3.0 4.0 0.00 0.00 0.00 63 982.0
20260506013322 62 230 2.0 3.0 0.00 0.00 0.00 63 982.1
20260506012922 62 224 3.0 5.0 0.00 0.00 0.00 63 982.0
20260506012522 62 212 4.0 5.0 0.00 0.00 0.00 62 982.0
20260506012122 62 196 2.0 4.0 0.00 0.00 0.00 62 982.0
20260506011720 62 198 4.0 6.0 0.00 0.00 0.00 62 982.0
20260506011320 62 186 3.0 6.0 0.00 0.00 0.00 62 982.0
20260506010920 62 171 4.0 7.0 0.00 0.00 0.00 61 982.0
20260506010510 62 163 4.0 7.0 0.00 0.00 0.00 61 982.0
20260506010109 62 168 3.0 8.0 0.00 0.00 0.00 60 982.0
20260506005706 62 160 2.0 6.0 0.00 0.00 0.00 60 981.9
20260506005306 62 144 4.0 7.0 0.00 0.00 0.00 60 981.9
20260506004905 62 156 1.0 2.0 0.00 0.00 0.00 60 981.9
20260506004505 63 147 4.0 7.0 0.00 0.00 0.00 59 981.9
20260506004105 63 142 3.0 9.0 0.00 0.00 0.00 59 981.8
20260506003703 63 147 3.0 5.0 0.00 0.00 0.00 59 981.8
20260506003303 63 128 4.0 7.0 0.00 0.00 0.00 58 981.7
20260506002903 63 120 4.0 8.0 0.00 0.00 0.00 58 981.7
20260506002503 63 135 3.0 5.0 0.00 0.00 0.00 58 981.8
20260506002103 63 146 4.0 8.0 0.00 0.00 0.00 58 981.9
20260506001701 63 136 4.0 7.0 0.00 0.00 0.00 57 981.9
20260506001301 63 169 4.0 7.0 0.00 0.00 0.00 57 981.9
20260506000901 64 156 3.0 6.0 0.00 0.00 0.00 57 981.9
20260506000501 64 152 5.0 12.0 0.00 0.00 0.00 57 981.9
20260505235700 64 163 5.0 10.0 0.00 0.00 0.00 56 982.0
20260505235257 64 165 6.0 10.0 0.00 0.00 0.00 56 982.0
20260505234857 64 141 5.0 9.0 0.00 0.00 0.00 55 982.0
20260505234457 64 142 5.0 8.0 0.00 0.00 0.00 55 982.1
20260505234057 64 150 5.0 9.0 0.00 0.00 0.00 55 982.1
20260505233655 64 147 5.0 11.0 0.00 0.00 0.00 55 982.1
20260505233255 65 149 4.0 9.0 0.00 0.00 0.00 54 982.1
20260505232855 65 135 4.0 7.0 0.00 0.00 0.00 54 982.1
20260505232456 65 152 4.0 8.0 0.00 0.00 0.00 54 982.1
20260505232056 65 147 6.0 11.0 0.00 0.00 0.00 54 982.2
20260505231654 65 142 6.0 11.0 0.00 0.00 0.00 53 982.2
20260505231254 65 143 7.0 15.0 0.00 0.00 0.00 53 982.2
20260505230854 65 151 7.0 12.0 0.00 0.00 0.00 53 982.2
20260505230454 65 163 5.0 9.0 0.00 0.00 0.00 53 982.2
20260505230054 65 145 7.0 10.0 0.00 0.00 0.00 53 982.2
20260505225652 65 143 7.0 13.0 0.00 0.00 0.00 52 982.2
20260505225252 65 148 7.0 13.0 0.00 0.00 0.00 52 982.2
20260505224852 66 135 6.0 11.0 0.00 0.00 0.00 52 982.2
20260505224450 66 142 7.0 16.0 0.00 0.00 0.00 52 982.3
20260505224050 66 150 5.0 8.0 0.00 0.00 0.00 52 982.3
20260505223640 66 151 5.0 10.0 0.00 0.00 0.00 51 982.3
20260505223239 66 152 6.0 11.0 0.00 0.00 0.00 51 982.3
20260505222839 66 164 6.0 10.0 0.00 0.00 0.00 51 982.4
20260505222438 66 152 6.0 8.0 0.00 0.00 0.00 51 982.4
20260505222038 66 160 6.0 16.0 0.00 0.00 0.00 51 982.4
20260505221636 66 151 5.0 10.0 0.00 0.00 0.00 51 982.5
20260505221236 66 168 8.0 12.0 0.00 0.00 0.00 51 982.5
20260505220836 66 170 6.0 10.0 0.00 0.00 0.00 51 982.5
20260505220436 66 167 6.0 17.0 0.00 0.00 0.00 50 982.5
20260505220036 66 166 5.0 7.0 0.00 0.00 0.00 50 982.5
20260505215634 67 157 5.0 9.0 0.00 0.00 0.00 50 982.5
20260505215234 67 147 5.0 12.0 0.00 0.00 0.00 50 982.5